EB1HRW Weather Reports


time (UTC)temp
C
wind
direction
speed
KPH
gust
KPH
rain 1hr
cm
rain 24hr
cm
rain mn
cm
humidity
%
barometer
mb
20260504045849 11 248 1.6 4.8 0.00 0.00 0.00 84 1011.4
20260504044349 11 265 0.0 8.0 0.00 0.00 0.00 84 1011.4
20260504041351 11 236 4.8 8.0 0.00 0.00 0.00 84 1011.4
20260504035849 11 256 0.0 6.4 0.00 0.00 0.00 84 1011.4
20260504034350 11 248 0.0 6.4 0.00 0.00 0.00 84 1011.4
20260504032849 11 165 0.0 4.8 0.00 0.00 0.00 84 1011.5
20260504031347 11 271 4.8 8.0 0.00 0.00 0.00 84 1011.6
20260504025848 11 273 4.8 9.7 0.00 0.00 0.00 84 1011.7
20260504024349 10 192 4.8 9.7 0.00 0.00 0.00 84 1011.7
20260504021347 10 210 3.2 11.3 0.00 0.00 0.00 84 1011.7
20260504015848 11 140 8.0 12.9 0.00 0.00 0.00 84 1011.6
20260504014348 11 215 4.8 11.3 0.00 0.00 0.00 84 1011.8
20260504012849 11 128 0.0 0.0 0.00 0.00 0.00 84 1011.8
20260504011347 11 150 0.0 0.0 0.00 0.00 0.00 84 1011.9
20260504005847 11 148 0.0 0.0 0.00 0.00 0.00 84 1011.8
20260504004348 11 259 0.0 0.0 0.00 0.00 0.00 82 1011.8
20260504002848 11 255 0.0 0.0 0.00 0.00 0.00 82 1011.8
20260504001349 12 238 0.0 11.3 0.00 0.00 0.00 82 1011.9
20260503235847 12 258 0.0 0.0 0.00 0.00 0.00 81 1012.0
20260503234348 12 245 0.0 9.7 0.00 0.00 0.00 80 1011.9
20260503232848 12 255 0.0 6.4 0.00 0.00 0.00 79 1011.9
20260503231349 12 202 0.0 9.7 0.00 0.00 0.00 79 1011.8
20260503225847 12 272 0.0 0.0 0.00 0.15 0.15 78 1011.9
20260503224348 12 262 0.0 0.0 0.00 0.15 0.15 77 1011.7
20260503224122 12 262 0.0 0.0 0.00 0.15 0.15 77 1011.7
20260503223948 12 255 0.0 0.0 0.00 0.15 0.15 76 1011.7
20260503223917 12 229 0.0 0.0 0.00 0.15 0.15 77 1011.8
20260503222417 12 222 0.0 0.0 0.00 0.15 0.15 77 1011.9
20260503220917 12 264 0.0 0.0 0.00 0.15 0.15 78 1011.9
20260503215417 12 264 0.0 0.0 0.00 0.15 0.15 77 1011.9
20260503213918 12 263 0.0 0.0 0.00 0.15 0.15 75 1012.1
20260503212417 13 266 0.0 12.9 0.00 0.15 0.15 73 1012.1
20260503210917 13 270 0.0 0.0 0.00 0.15 0.15 71 1012.1
20260503205418 13 278 0.0 0.0 0.00 0.15 0.15 71 1011.8
20260503203917 13 278 0.0 0.0 0.00 0.15 0.15 71 1011.5
20260503202417 13 279 0.0 16.1 0.00 0.15 0.15 71 1011.2
20260503200917 13 266 0.0 14.5 0.00 0.15 0.15 70 1010.8
20260503195418 13 271 0.0 19.3 0.00 0.15 0.15 72 1010.5
20260503193917 13 257 8.0 22.5 0.00 0.15 0.15 71 1010.4
20260503192417 14 253 9.7 37.0 0.00 0.15 0.15 70 1010.3
20260503190918 15 250 16.1 38.6 0.00 0.15 0.15 68 1010.0
20260503185416 16 284 19.3 16.1 0.00 0.15 0.15 59 1009.8
20260503183917 17 251 0.0 17.7 0.00 0.15 0.15 58 1009.4
20260503182418 17 257 9.7 24.1 0.00 0.15 0.15 55 1009.4
20260503180916 17 265 12.9 19.3 0.00 0.15 0.15 52 1009.4
20260503175417 18 249 6.4 27.4 0.00 0.15 0.15 53 1009.3
20260503173918 18 252 14.5 27.4 0.00 0.15 0.15 52 1009.3
20260503172417 18 267 12.9 29.0 0.00 0.15 0.15 53 1009.2
20260503170917 18 275 16.1 22.5 0.00 0.15 0.15 54 1009.2
20260503150917 17 271 12.9 20.9 0.00 0.15 0.15 67 1009.3
20260503080730 10 113 1.6 4.8 0.05 0.08 0.08 74 1013.1